Погода в Елатьме

Погода в Елатьме : погода сейчас, прогноз погоды и архив. Всё, что Вы хотите узнать о погоде в Елатьме!

Поиск расширенной информации на нашем сайте:

Другие новости

Новости СМИ2

Главная страница сайта

Новости сайта

03.07.2017

Напоминаем, что на нашем специализированном сайте Метеоцентр.Азия вы можете получить высокодетализированные автоматические прогнозы погоды по пунктам России, СНГ и мира в авиационном формате (включающие направление и скорость ветра, видимость, явления погоды, количество и форму облачности, нижнюю и верхнюю границу облачности).

Рекомендуем: Домашний текстиль ивановский текстиль. Покупкапродажа всего на свете.

Погода в Елатьме - сегодня

Время (UTC), дата Ветер
(°,м/с) 
Видим.   Явления Облачность Т
(°С)
Тd
(°С)
f(%) Тe
(°С)
Pmin
(гПа)
dP
(гПа)
Po
(мм)
O2
(г/м3)
Тmin Tmax R s Состояние
почвы
03 22.06.18 тихо ()   10 км    ясно 
+14.8 +13.9 94 +22  1013.9  0.5  748  283  +9.1        сухая 
06 22.06.18 210 (ЮЗ) 10 км    1/0 верхняя 
[Ci fib]
+22.5 +12.3 52 +27  1013.5  748  276           
09 22.06.18 250 (З) 10 км    10/6 600 м верхняя 
[Cu med, cong|Ci fib]
+25.6 +12.7 45 +31  1012.9  -0.4  748  273           
12 22.06.18 240 (ЮЗ) 10 км    10/8 600 м верхняя 
[Cu med, cong|Ci fib]
+27.9 +11.3 36 +31  1011.3  -1.5  747  271           
18 22.06.18 170 (Ю) 10 км    10/0 верхняя 
[Ci fib]
+23 +12.8 53 +28  1010.6  -0.3  746  275           
21 22.06.18 170 (Ю) 10 км    10/0 верхняя 
[Ci fib]
+20.2 +13.3 65 +26  1010.8  746  277           
00 23.06.18 150 (ЮВ) 10 км    10/0 верхняя 
[Ci fib]
+17.3 +12.8 75 +24  1011.5  0.6  747  280           
03 23.06.18 150 (ЮВ) 10 км    4/4 600 м 
[Cu hum]
+18.6 +13.9 74 +27  1011.6  0.2  747  279  +16.7        сухая 
06 23.06.18 210 (ЮЗ) 10 км    10/3 600 м верхняя 
[Cu hum|Ci fib]
+26.8 +15 48 +36  1011.4  0.2  747  271           
09 23.06.18 220 (ЮЗ) 10 км    10/8 600 м верхняя 
[Cu hum|Ci fib]
+30.9 +12.2 32 +35  1011  -0.2  747  268           
12 23.06.18 190 (Ю) 10 км    10/8 600 м верхняя 
[Cu hum|Ci fib]
+29.9 +12.1 33 +34  1011  0.1  747  269           
18 23.06.18 тихо ()   10 км    10/0 верхняя 
[Ci fib]
+24.1 +13.9 53 +31  1010.4  -0.1  746  274           
21 23.06.18 130 (ЮВ) 10 км    ясно 
+20.7 +15 70 +29  1011  0.4  746  276           
00 24.06.18 120 (ЮВ) 10 км    ясно 
+18.5 +13.6 73 +26  1011  0.1  746  279           
03 24.06.18 150 (ЮВ) 10 км    10/0 верхняя 
[Ci fib]
+21.4 +13.5 61 +28  1011.1  0.2  747  276  +17.2        сухая 
06 24.06.18 160 (Ю) 10 км    10/3 600 м средняя, верхняя 
[Sc|Ac trans|Ci fib]
+28.4 +13.1 39 +34  1010.2  -0.5  746  270           
09 24.06.18 160 (Ю) 10 км    4/0 средняя, верхняя 
[Ac trans|Ci fib]
+31.3 +10.7 28 +33  1010.4  0.3  746  268           
12 24.06.18 140 (ЮВ) 10 км    10/4 600 м средняя, верхняя 
[Cu hum|Ac trans|Ci fib]
+32.3 +11.2 27 +35  1009.8  -0.5  746  267           
18 24.06.18 130 (ЮВ) 10 км    10/6 600 м средняя, верхняя 
[Sc diur, vesp|Ac trans|Cs]
+23.5 +11.8 48 +27  1010  0.4  746  274           
21 24.06.18 160 (Ю) 10 км    10/3 600 м средняя, верхняя 
[Sc|Ac trans|Ci fib]
+22.4 +10.1 46 +24  1010.4  0.3  746  276           
00 25.06.18 тихо ()   10 км    10/8 600 м средняя 
[Sc|Ac trans]
+19.1 +11.9 63 +23  1011.6  747  279           
03 25.06.18 280 (З) 10 км    10/0 верхняя 
[Ci fib]
+18.6 +15.5 82 +29  1013.9  2.2  749  279  +16.7        сухая 
06 25.06.18 260 (З) 10 км    10/10 600 м 
[Sc]
+21.2 +16 72 +32  1015.5  1.7  750  277           
09 25.06.18 230 (ЮЗ) 10 км    10/10 600 м 
[Sc]
+19.1 +14.7 76 +28  1018.1  2.5  752  280           
12 25.06.18 280 (З) 10 км    10/10 600 м 
[Sc]
+20.7 +14.1 66 +28  1018.7  0.7  752  279           
Время (UTC), дата Ветер
(°,м/с) 
Видим.   Явления Облачность Т
(°С)
Тd
(°С)
f(%) Тe
(°С)
Pmin
(гПа)
dP
(гПа)
Po
(мм)
O2
(г/м3)
Тmin Tmax R s Состояние
почвы

Для получения пояснительной информации подведите курсор к названию столбца.

ПОГОДА в Елатьме - архив

Всё, что Вы хотите узнать о погоде в Елатьме - удобно и подробно!

Выберите нужную дату (начиная с 1 января 2015* года) и нажмите кнопку "Найти".
Будут отображены архивные сводки погоды по пункту Елатьма, начиная с указанной даты.


Отображать данные в формате CSV (для использования в таблицах Excel)


Внимание! Наш архив погоды предназначен исключительно для личного некоммерческого использования в познавательных целях. Если Вам необходимы официальные справки о состоянии погоды (для производственных, юридических, коммерческих и т.п. целей), обращайтесь в органы Росгидромета.

*Примечание: данная дата относится к архиву по метеостанциям СССР (Россия, СНГ, Балтия).
Архив по метеостанциям Зарубежной Европы и Азии (кроме Китая) хранится 10 дней, по другим регионам земного шара (Китай, Африка, Америка, Австралия, Океания) - 1 день.

Елатьма - район местоположения метеостанции


Название, широта, долгота, высота метеостанции:
Елатьма 54.9°ш. 41.8°д. 136 м над ур. моря [Российская Федерация]

Дополнительная информация

В oтличие oт бoльшинства пoгoдных сайтoв мы публикуем пoдрoбную метеoинфoрмацию в детальнoм прoфессиoнальнoм фoрмате.

Характеристики температуры и влажнoсти вoздуха измеряются на высoте 2 м в тени вдали oт зданий и деревьев.
Скoрoсть ветра измеряется на высoте 10 м (на урoвне рoста челoвека скoрoсть ветра ниже в 1.5-2 раза). Если метеoстанция нахoдится в гoрoде или в лесу, тo скoрoсть ветра занижена на 2-4 м/с пo сравнению с oткрытым местoм. Скoрoсть ветра над акватoриями крупных рек и oзёр, а также на вершинах хoлмoв на 2-5 м/с выше, чем в oбычных услoвиях.
Атмoсфернoе давление в разных тoчках местнoсти мoжет значительнo oтличаться oт давления на метеoстанции, в зависимoсти oт услoвий рельефа (при пoдъёме на 10 м давление пoнижается примернo на 1 мм рт.ст.).